Location: Copper Mountain Observatory
(34.1350°N, 116.3120°W)
Time: 15:11:52
(UTC-07:00)

Daily predictions for brighter satellites

Satellite Brightness Start Highest point End
(mag) Time Altitude Azimuth Time Altitude Azimuth Time Altitude Azimuth
Cosmos 2233 Rocket 4.4 20:07:18 10° N 20:13:29 71° W 20:19:36 10° S
Lacrosse 4 Rocket 3.1 20:14:10 10° SE 20:16:10 13° ESE 20:18:10 10° ENE
Cosmos 1743 2.9 20:12:43 10° N 20:16:34 79° W 20:20:22 10° S
H-2A R/B 3.5 20:14:33 10° ESE 20:17:51 22° ENE 20:21:13 10° NNE
CZ-4 DEB 3.0 20:19:11 10° SSE 20:22:20 55° ENE 20:25:30 10° N
ERS-1 Rocket 3.7 20:18:23 10° SE 20:22:54 35° ENE 20:27:26 10° N
deb Chang Zheng 4 4.2 20:19:53 10° NNE 20:23:54 35° E 20:27:53 10° SSE
Cosmos 2228 3.4 20:19:57 10° N 20:24:15 49° E 20:28:29 10° SSE
BREEZE-M DEB (TANK) 3.3 20:16:02 10° SW 20:24:21 82° NW 20:27:07 10° NE
Cosmos 1626 Rocket 4.0 20:20:14 10° SSE 20:24:24 42° E 20:28:35 10° NNE
Cosmos 2285 Rocket 4.1 20:21:14 10° NNW 20:27:35 90° WSW 20:33:57 10° SSE
GEOS 3 Rocket 4.5 20:24:14 10° ESE 20:29:02 37° NE 20:33:48 10° NNW
Cosmos 1464 Rocket 4.0 20:23:37 10° N 20:29:45 69° E 20:35:55 10° SSE
Cosmos 1603 3.7 20:25:59 10° SSW 20:31:36 89° ESE 20:37:14 10° NNE
FENGYUN 3A 3.7 20:26:43 10° SSE 20:32:04 80° ENE 20:37:29 10° N
Meteor 1-15 Rocket 4.2 20:29:34 10° N 20:35:11 72° E 20:40:52 10° SSE
Atlas Centaur 2 2.9 20:30:23 10° WSW 20:36:58 65° S 20:44:59 10° E
Envisat 4.2 20:34:27 11° ESE 20:38:29 26° ENE 20:42:40 10° NNE
Meteor 2-9 Rocket 4.3 20:33:29 10° N 20:39:16 83° E 20:45:07 10° S
Cosmos 1461 2.9 20:41:24 10° NNW 20:45:37 79° WSW 20:49:18 12° SSE
SJ-11-01 4.4 20:45:43 10° SSE 20:50:15 60° ENE 20:54:51 10° N
Cosmos 2034 Rocket 4.0 20:44:47 10° N 20:51:09 77° E 20:57:26 10° S
APEX 4.5 20:47:11 10° NNW 20:51:42 59° WSW 20:57:35 10° S
Cosmos 1943 3.4 20:46:26 10° S 20:51:53 51° ESE 20:57:23 10° NNE
Cosmos 1939 Rocket 3.5 20:49:40 15° SE 20:52:43 40° ENE 20:56:36 10° N
H-2A R/B 3.6 20:51:00 10° S 20:54:50 50° W 20:58:42 10° NNW
Cosmos 1346 Rocket 3.9 21:02:36 21° ESE 21:03:42 24° E 21:06:55 10° NE
Cosmos 1992 Rocket 4.2 21:10:00 10° N 21:15:07 55° ENE 21:17:59 25° SE
Delta 168 4.2 21:13:49 10° SW 21:16:15 19° S 21:16:15 19° S
SeaSat 1 3.5 21:15:27 21° ESE 21:17:53 32° ENE 21:22:14 10° N
Cosmos 1758 Rocket 4.4 21:17:36 27° ESE 21:18:39 30° E 21:22:28 10° NNE
ISS 0.1 21:18:43 10° WNW 21:20:19 13° NNW 21:21:56 10° N
ARGOS 4.4 21:18:20 20° ESE 21:20:30 26° ENE 21:24:54 10° NNE
USA 186 4.5 21:19:53 10° WSW 21:20:57 12° W 21:22:01 10° WNW
ALOS 4.3 21:19:13 10° SSW 21:23:03 25° W 21:26:55 10° NW
COSMOS 2455 4.1 21:17:53 10° SW 21:23:34 44° WNW 21:29:18 10° NNE
USA 81 4.3 21:20:34 10° N 21:25:43 51° E 21:28:10 29° SE
MetOp-B 4.3 21:26:41 28° SE 21:29:19 55° ENE 21:34:33 10° N
Centaur D AC-28 3.1 21:27:47 10° WSW 21:30:38 20° SSW 21:31:02 20° S
CZ-2C R/B 3.5 21:33:12 10° WSW 21:34:08 12° W 21:35:05 10° WNW
Cosmos 1825 Rocket 3.5 21:31:36 21° S 21:34:32 88° E 21:38:59 10° N
CZ-4B R/B 3.5 21:31:29 10° NNE 21:36:37 68° ESE 21:39:52 23° S
Cosmos 1190 Rocket 4.1 21:31:54 10° SSW 21:37:11 77° WNW 21:42:31 10° NNE
Cosmos 1766 4.5 21:35:06 10° NNE 21:38:30 27° ENE 21:38:30 27° ENE
Cosmos 2369 Rocket 2.2 21:33:03 10° NNW 21:38:42 67° ENE 21:41:03 35° SE
YAOGAN 6 2.9 21:40:59 47° E 21:41:17 48° ENE 21:44:54 10° N
H-2A R/B 3.5 21:45:29 19° ENE 21:46:13 20° ENE 21:49:50 10° NNE
CZ-4 SHROUD 3.9 21:46:21 42° SW 21:46:52 47° W 21:49:56 10° NNW
CZ-4 R/B 4.0 21:42:08 10° NNE 21:47:05 58° E 21:48:33 41° SSE
Cosmos 1140 Rocket 4.2 21:47:15 34° E 21:47:15 34° E 21:51:54 10° NE
SPOT 5 3.0 21:50:53 33° SSW 21:52:38 59° W 21:56:54 10° NNW
PSLV R/B 4.1 21:52:30 39° WSW 21:52:48 40° W 21:55:46 10° NNW
H-2A R/B 3.9 21:50:39 12° SSW 21:53:41 25° W 21:57:19 10° NW
Terra 3.4 21:53:35 21° ENE 21:53:51 21° ENE 21:57:21 10° NNE
ATLAS 3B R/B 3.5 21:46:20 10° SW 21:53:56 61° WNW 22:01:26 10° NNE
Lacrosse 4 Rocket 2.8 21:50:44 10° SW 21:54:29 37° WNW 21:58:17 10° N
Cosmos 676 Rocket 3.9 21:50:52 21° SSW 21:54:30 89° ESE 21:59:51 10° NNE
SPOT 1/Viking Rocket 3.5 21:53:34 45° SE 21:55:04 69° ENE 22:00:12 10° N
DEBRIS 3.7 21:56:20 10° WNW 21:58:29 27° W 21:58:29 27° W
Cosmos 2263 4.1 22:06:29 10° NNW 22:12:08 88° WSW 22:13:26 55° SSE
USA 234 3.9 22:09:10 28° E 22:12:13 46° NE 22:18:26 10° NNW
CZ-4C R/B 3.8 22:14:31 54° NE 22:14:31 54° NE 22:18:06 10° N
USA 245 4.3 22:13:44 44° S 22:15:35 73° WSW 22:20:41 10° NNW
COSMOS 2406 3.1 22:15:41 57° SSE 22:16:37 68° ESE 22:22:18 10° NNE
SL-27 R/B 3.8 22:18:58 34° N 22:18:58 34° N 22:21:03 10° N
Nadezhda 4 Rocket 4.2 22:19:24 49° ESE 22:20:10 52° E 22:26:16 10° NNE
Atlas Centaur 2 3.0 22:19:12 10° W 22:26:37 62° S 22:28:40 49° SE
DMSP B5D2-2 4.3 22:21:35 10° NNE 22:26:18 52° E 22:26:18 52° E
Cosmos-2242 3.3 22:24:38 10° N 22:28:28 63° NNE 22:28:28 63° NNE
Cosmos 1943 Rocket 2.0 22:26:01 10° NNW 22:31:35 72° ENE 22:31:58 69° E
Cosmos 1953 3.3 22:29:17 10° N 22:32:04 42° NNE 22:32:04 42° NNE
SL-08 RB Rocket 3.9 22:35:39 65° W 22:35:39 65° W 22:40:02 10° NNW
USA 238 DEB 4.0 22:32:10 10° SW 22:39:13 68° WNW 22:46:17 10° NNE
USA 238 4.0 22:32:16 10° SW 22:39:19 69° WNW 22:46:23 10° NNE
Cosmos 1656 Rocket 4.4 22:34:54 10° N 22:40:12 39° ENE 22:40:20 39° ENE
Spot 2 4.4 22:38:17 10° NNE 22:42:49 75° NE 22:42:49 75° NE
Cosmos 1607 4.0 22:45:38 39° SW 22:48:06 74° WNW 22:54:21 10° NNE
SeaSat 1 3.9 22:55:15 27° WSW 22:55:20 27° WSW 22:59:31 10° NW
Cosmos 2208 Rocket 4.2 22:51:59 10° NNW 22:56:31 65° NNE 22:56:31 65° NNE
CARTOSAT-1 4.5 22:59:20 47° NNW 22:59:20 47° NNW 23:02:30 10° NNW
CZ-4C R/B 3.0 23:02:16 39° NE 23:02:16 39° NE 23:05:58 10° NE
ARGOS 4.2 22:59:51 33° WSW 23:00:31 34° W 23:05:26 10° NNW
NOSS 3-2 (C) 3.7 23:14:45 56° ENE 23:14:45 56° ENE 23:19:58 10° NE
Cosmos 2369 Rocket 4.5 23:19:37 10° WNW 23:21:59 13° W 23:22:51 12° WSW
H-2A R/B 3.1 23:26:07 36° WNW 23:26:07 36° WNW 23:30:01 10° NNW
Meteor 2-5 Rocket 4.0 23:31:04 66° NW 23:31:04 66° NW 23:36:18 10° N
Terra 3.4 23:32:28 30° WNW 23:32:28 30° WNW 23:35:38 10° NNW
Cosmos 1553 Rocket 4.4 23:46:40 10° N 23:52:07 55° NE 23:52:07 55° NE
Lacrosse 5 4.4 23:50:25 10° N 23:53:01 14° NNE 23:55:03 11° ENE
